FW2972 Weather Reports


Display with metric or nautical units.
time (UTC)temp
F
wind
direction
speed
MPH
gust
MPH
rain 1hr
in
rain 24hr
in
rain mn
in
humidity
%
barometer
mb
20260510151336 82 126 2.0 9.0 0.00 0.00 0.00 87 1019.1
20260510150831 83 175 3.0 4.0 0.00 0.00 0.00 87 1019.1
20260510150327 84 155 4.0 7.0 0.00 0.00 0.00 86 1019.0
20260510145824 83 183 2.0 6.0 0.00 0.00 0.00 87 1019.1
20260510145320 83 170 2.0 8.0 0.00 0.00 0.00 85 1019.1
20260510144817 84 200 1.0 2.0 0.00 0.00 0.00 85 1018.9
20260510144314 82 182 2.0 3.0 0.00 0.00 0.00 88 1019.0
20260510143813 82 224 0.0 5.0 0.00 0.00 0.00 88 1019.0
20260510143310 82 240 0.0 2.0 0.00 0.00 0.00 91 1019.2
20260510142806 81 157 0.0 6.0 0.00 0.00 0.00 90 1019.2
20260510142306 81 7 0.0 2.0 0.00 0.00 0.00 91 1019.0
20260510141800 82 158 1.0 5.0 0.00 0.00 0.00 89 1019.0
20260510141258 84 187 1.0 2.0 0.00 0.00 0.00 88 1019.0
20260510140755 82 76 0.0 2.0 0.00 0.00 0.00 91 1018.8
20260510140250 81 140 0.0 4.0 0.00 0.00 0.00 92 1018.9
20260510135744 79 142 0.0 3.0 0.00 0.00 0.00 95 1018.8
20260510135239 78 168 1.0 4.0 0.00 0.00 0.00 95 1018.8
20260510134738 78 120 1.0 3.0 0.00 0.00 0.00 94 1018.7
20260510134235 79 130 2.0 3.0 0.00 0.00 0.00 94 1018.5
20260510133730 79 152 0.0 2.0 0.00 0.00 0.00 94 1018.7
20260510133226 79 205 0.0 3.0 0.00 0.00 0.00 94 1018.8
20260510132722 79 145 0.0 3.0 0.00 0.00 0.00 96 1018.5
20260510132220 79 219 2.0 3.0 0.00 0.00 0.00 96 1018.3
20260510131717 78 217 0.0 1.0 0.00 0.00 0.00 97 1018.2
20260510131215 78 81 0.0 2.0 0.00 0.00 0.00 97 1018.2
20260510130711 78 14 0.0 0.0 0.00 0.00 0.00 97 1018.1
20260510130208 77 205 0.0 1.0 0.00 0.00 0.00 98 1017.8
20260510125704 77 230 0.0 1.0 0.00 0.00 0.00 98 1017.7
20260510125201 77 142 0.0 1.0 0.00 0.00 0.00 98 1017.9
20260510124658 77 129 0.0 2.0 0.00 0.00 0.00 98 1017.6
20260510124155 77 180 0.0 2.0 0.00 0.00 0.00 98 1017.3
20260510123650 77 117 0.0 1.0 0.00 0.00 0.00 99 1017.2
20260510123146 77 135 0.0 1.0 0.00 0.00 0.00 98 1017.5
20260510122643 76 142 0.0 1.0 0.00 0.00 0.00 98 1017.4
20260510122139 76 150 0.0 2.0 0.00 0.00 0.00 98 1017.2
20260510121635 76 124 1.0 2.0 0.00 0.00 0.00 98 1017.0
20260510121133 76 210 0.0 2.0 0.00 0.00 0.00 99 1016.8
20260510120630 76 134 2.0 4.0 0.00 0.00 0.00 99 1017.0
20260510120126 76 144 2.0 3.0 0.00 0.00 0.00 98 1016.9
20260510115622 76 146 0.0 3.0 0.00 0.00 0.00 99 1016.7
20260510115121 76 162 0.0 2.0 0.00 0.00 0.00 99 1016.5
20260510114615 76 213 0.0 5.0 0.00 0.00 0.00 98 1016.5
20260510114112 76 169 2.0 3.0 0.00 0.00 0.00 99 1016.4
20260510113608 76 139 3.0 6.0 0.00 0.00 0.00 99 1016.2
20260510113105 76 191 2.0 6.0 0.00 0.00 0.00 99 1016.1
20260510112601 76 142 0.0 2.0 0.00 0.00 0.00 99 1016.2
20260510112058 76 151 0.0 5.0 0.00 0.00 0.00 99 1016.2
20260510111554 76 148 1.0 3.0 0.00 0.00 0.00 99 1016.1
20260510111050 76 166 0.0 2.0 0.00 0.00 0.00 99 1016.0
20260510110547 76 140 0.0 4.0 0.00 0.00 0.00 99 1016.0
20260510110043 76 195 0.0 2.0 0.00 0.00 0.00 99 1015.8
20260510105539 76 134 3.0 5.0 0.00 0.00 0.00 99 1015.9
20260510105033 76 176 1.0 2.0 0.00 0.00 0.00 99 1015.8
20260510104530 76 147 0.0 3.0 0.00 0.00 0.00 99 1015.7
20260510104026 76 233 2.0 7.0 0.00 0.00 0.00 99 1015.4
20260510103524 76 145 2.0 5.0 0.00 0.00 0.00 99 1015.5
20260510103020 76 205 0.0 6.0 0.00 0.00 0.00 99 1015.5
20260510102516 76 108 0.0 10.0 0.00 0.00 0.00 99 1015.6
20260510102013 75 182 1.0 9.0 0.00 0.00 0.00 99 1015.6
20260510101510 75 87 1.0 4.0 0.00 0.00 0.00 99 1015.4
20260510101009 75 157 4.0 7.0 0.00 0.00 0.00 99 1015.4
20260510100504 75 106 2.0 5.0 0.00 0.00 0.00 99 1015.5
20260510100002 75 235 0.0 10.0 0.00 0.00 0.00 99 1015.5
20260510095456 75 214 0.0 4.0 0.00 0.00 0.00 99 1015.6
20260510094956 75 255 0.0 5.0 0.00 0.00 0.00 99 1015.3
20260510094451 75 189 1.0 3.0 0.00 0.00 0.00 99 1015.5
20260510093947 75 204 1.0 4.0 0.00 0.00 0.00 99 1015.5
20260510093443 75 180 0.0 6.0 0.00 0.00 0.00 99 1015.3
20260510092939 75 229 2.0 7.0 0.00 0.00 0.00 99 1015.6
20260510092437 75 170 2.0 4.0 0.00 0.00 0.00 99 1015.3
20260510091936 75 222 1.0 3.0 0.00 0.00 0.00 99 1015.5
20260510091434 75 262 2.0 4.0 0.00 0.00 0.00 99 1015.5
20260510090930 75 215 0.0 4.0 0.00 0.00 0.00 99 1015.6
20260510090427 75 230 0.0 4.0 0.00 0.00 0.00 99 1015.6
20260510085922 74 147 0.0 2.0 0.00 0.00 0.00 99 1015.3
20260510085418 74 173 0.0 3.0 0.00 0.00 0.00 99 1015.4
20260510084913 74 106 0.0 2.0 0.00 0.00 0.00 99 1015.4
20260510084411 75 218 1.0 3.0 0.00 0.00 0.00 99 1015.2
20260510083907 75 228 0.0 2.0 0.00 0.00 0.00 99 1015.4
20260510083404 74 145 2.0 3.0 0.00 0.00 0.00 99 1015.3
20260510082859 74 195 0.0 5.0 0.00 0.00 0.00 99 1015.4
20260510082357 74 104 0.0 4.0 0.00 0.00 0.00 99 1015.4
20260510081855 74 219 1.0 3.0 0.00 0.00 0.00 99 1015.3
20260510081352 74 186 1.0 3.0 0.00 0.00 0.00 99 1015.4
20260510080849 74 113 0.0 2.0 0.00 0.00 0.00 99 1015.5
20260510080342 74 209 0.0 4.0 0.00 0.00 0.00 99 1015.4
20260510075840 74 171 2.0 2.0 0.00 0.00 0.00 99 1015.2
20260510075338 74 153 2.0 4.0 0.00 0.00 0.00 99 1015.2
20260510074834 74 142 0.0 0.0 0.00 0.00 0.00 99 1015.3
20260510074331 75 247 2.0 3.0 0.00 0.00 0.00 99 1015.3
20260510073828 74 92 1.0 2.0 0.00 0.00 0.00 99 1015.2
20260510073323 75 128 2.0 7.0 0.00 0.00 0.00 99 1015.2
20260510072819 75 97 8.0 8.0 0.00 0.00 0.00 99 1015.3
20260510072317 75 174 1.0 4.0 0.00 0.00 0.00 99 1015.2
20260510071813 75 158 0.0 6.0 0.00 0.00 0.00 99 1015.2
20260510071309 74 242 0.0 2.0 0.00 0.00 0.00 99 1015.2
20260510070808 75 210 1.0 5.0 0.00 0.00 0.00 99 1015.2
20260510070305 74 191 1.0 5.0 0.00 0.00 0.00 99 1015.3
20260510065804 74 123 3.0 3.0 0.00 0.00 0.00 99 1015.3
20260510065305 74 128 0.0 2.0 0.00 0.00 0.00 98 1015.5
20260510064758 75 247 3.0 5.0 0.00 0.00 0.00 98 1015.2
20260510064256 75 250 0.0 3.0 0.00 0.00 0.00 98 1015.3
20260510063751 75 210 2.0 8.0 0.00 0.00 0.00 97 1015.2
20260510063248 75 257 2.0 6.0 0.00 0.00 0.00 97 1015.2
20260510062745 75 148 3.0 8.0 0.00 0.00 0.00 97 1015.4
20260510062241 75 209 2.0 6.0 0.00 0.00 0.00 98 1015.4
20260510061736 75 176 1.0 4.0 0.00 0.00 0.00 99 1015.4
20260510061234 75 152 3.0 5.0 0.00 0.00 0.00 99 1015.6
20260510060729 75 168 2.0 4.0 0.00 0.00 0.00 99 1015.6
20260510060227 75 158 2.0 4.0 0.00 0.00 0.00 99 1015.7
20260510055723 75 162 1.0 6.0 0.00 0.00 0.00 99 1015.6
20260510055221 75 157 0.0 5.0 0.00 0.00 0.00 99 1015.8
20260510054716 75 142 3.0 7.0 0.00 0.00 0.00 99 1015.6
20260510054212 75 163 3.0 5.0 0.00 0.00 0.00 99 1015.7
20260510053712 75 196 2.0 5.0 0.00 0.00 0.00 99 1015.3
20260510053208 76 146 2.0 6.0 0.00 0.00 0.00 98 1015.8
20260510052704 76 187 2.0 7.0 0.00 0.00 0.00 98 1015.6
20260510052200 76 183 1.0 11.0 0.00 0.00 0.00 98 1015.7
20260510051656 76 182 3.0 11.0 0.00 0.00 0.00 98 1015.8
20260510051153 76 138 7.0 11.0 0.00 0.00 0.00 98 1015.8
20260510050650 76 134 2.0 11.0 0.00 0.00 0.00 99 1015.8
20260510050147 76 195 3.0 10.0 0.00 0.00 0.00 99 1016.1
20260510045644 76 183 2.0 7.0 0.00 0.02 0.02 99 1016.2
20260510045141 76 165 3.0 6.0 0.00 0.02 0.02 99 1016.0
20260510044636 76 155 2.0 7.0 0.00 0.02 0.02 99 1016.1
20260510044134 76 153 1.0 11.0 0.00 0.02 0.02 99 1016.2
20260510043630 76 166 2.0 9.0 0.00 0.02 0.02 99 1016.3
20260510043126 76 126 2.0 6.0 0.00 0.02 0.02 99 1016.4
20260510042624 76 200 3.0 11.0 0.00 0.02 0.02 99 1016.5
20260510042120 76 85 5.0 10.0 0.00 0.02 0.02 99 1016.5
20260510041617 76 132 5.0 10.0 0.00 0.02 0.02 99 1016.5
20260510041114 76 144 2.0 6.0 0.02 0.02 0.02 99 1016.7
20260510040612 76 125 1.0 12.0 0.02 0.02 0.02 99 1016.7
20260510040108 76 141 1.0 7.0 0.00 0.01 0.01 99 1016.6
20260510035604 76 134 4.0 7.0 0.00 0.01 0.01 99 1016.5
20260510035058 76 152 3.0 5.0 0.00 0.01 0.01 99 1016.7
20260510034556 76 124 2.0 9.0 0.02 0.01 0.01 99 1016.4
20260510034053 76 109 2.0 3.0 0.05 0.01 0.01 99 1016.1
20260510033549 77 80 0.0 5.0 0.05 0.01 0.01 99 1016.0
20260510033047 77 162 3.0 9.0 0.02 0.00 0.00 99 1016.0
20260510032543 77 119 5.0 11.0 0.00 0.00 0.00 98 1015.8
20260510032038 77 165 2.0 7.0 0.00 0.00 0.00 98 1016.2
20260510031533 77 200 0.0 5.0 0.00 0.00 0.00 97 1016.4
20260510031030 78 132 4.0 6.0 0.00 0.00 0.00 97 1016.6
20260510030526 78 146 2.0 8.0 0.00 0.00 0.00 97 1016.4
20260510030023 78 57 1.0 8.0 0.00 0.00 0.00 97 1016.4
20260510025520 78 226 3.0 11.0 0.00 0.00 0.00 96 1016.4
20260510025018 78 105 3.0 7.0 0.00 0.00 0.00 97 1016.1
20260510024514 78 172 2.0 13.0 0.00 0.00 0.00 97 1016.0
20260510024010 78 184 3.0 13.0 0.00 0.00 0.00 96 1015.8
20260510023506 78 129 3.0 11.0 0.00 0.00 0.00 96 1015.7
20260510023004 78 155 7.0 10.0 0.00 0.00 0.00 96 1015.6
20260510022503 78 156 3.0 10.0 0.00 0.00 0.00 96 1015.5
20260510022003 78 103 6.0 7.0 0.00 0.00 0.00 95 1015.6
20260510021459 78 167 2.0 7.0 0.00 0.00 0.00 95 1015.5
20260510020956 78 157 2.0 9.0 0.00 0.00 0.00 94 1015.4
20260510020451 79 137 4.0 8.0 0.00 0.00 0.00 94 1015.3
20260510015946 79 101 5.0 10.0 0.00 0.00 0.00 93 1015.1
20260510015443 79 201 3.0 5.0 0.00 0.00 0.00 90 1014.5
20260510014938 80 166 3.0 7.0 0.00 0.00 0.00 87 1014.4
20260510014436 80 137 3.0 8.0 0.00 0.00 0.00 83 1014.3
20260510013932 80 138 2.0 7.0 0.00 0.00 0.00 82 1014.2
20260510013427 80 149 3.0 6.0 0.00 0.00 0.00 82 1014.1
20260510012923 81 131 3.0 5.0 0.00 0.00 0.00 82 1014.3
20260510012418 81 204 0.0 8.0 0.00 0.00 0.00 81 1014.0
20260510011913 81 165 3.0 5.0 0.00 0.00 0.00 78 1013.9
20260510011408 81 149 0.0 8.0 0.00 0.00 0.00 77 1013.4
20260510010904 82 266 3.0 6.0 0.00 0.00 0.00 77 1013.3
20260510010402 82 190 0.0 5.0 0.00 0.00 0.00 76 1013.4
20260510005858 82 142 7.0 8.0 0.00 0.00 0.00 75 1013.1
20260510005354 83 186 3.0 17.0 0.00 0.00 0.00 73 1013.1
20260510004852 83 180 1.0 10.0 0.00 0.00 0.00 73 1013.1
20260510004349 83 175 2.0 6.0 0.00 0.00 0.00 80 1012.9
20260510003847 83 178 1.0 8.0 0.00 0.00 0.00 78 1012.9
20260510003344 83 185 1.0 4.0 0.00 0.00 0.00 77 1013.0
20260510002842 84 203 2.0 4.0 0.00 0.00 0.00 76 1013.1
20260510002340 84 156 4.0 5.0 0.00 0.00 0.00 75 1012.8
20260510001837 84 220 0.0 7.0 0.00 0.00 0.00 73 1012.9
20260510001335 84 151 4.0 8.0 0.00 0.00 0.00 72 1012.8
20260510000831 84 121 0.0 4.0 0.00 0.00 0.00 72 1013.2
20260510000328 84 133 2.0 6.0 0.00 0.00 0.00 70 1012.8
20260509235825 85 214 1.0 4.0 0.00 0.00 0.00 71 1012.6
20260509235321 85 229 0.0 7.0 0.00 0.00 0.00 72 1012.7
20260509234817 85 180 0.0 3.0 0.00 0.00 0.00 76 1012.6
20260509234314 85 131 0.0 5.0 0.00 0.00 0.00 76 1012.7
20260509233812 85 174 2.0 7.0 0.00 0.00 0.00 77 1012.6
20260509233309 85 198 2.0 5.0 0.00 0.00 0.00 77 1012.5
20260509232805 85 167 2.0 6.0 0.00 0.00 0.00 76 1012.4
20260509232306 86 136 5.0 6.0 0.00 0.00 0.00 76 1012.4
20260509231759 86 211 1.0 5.0 0.00 0.00 0.00 77 1012.7
20260509231256 87 175 2.0 5.0 0.00 0.00 0.00 76 1012.8
20260509230754 87 139 2.0 7.0 0.00 0.00 0.00 76 1012.4
20260509230250 86 135 1.0 5.0 0.00 0.00 0.00 77 1012.6
20260509225745 87 129 1.0 8.0 0.00 0.00 0.00 77 1012.5
20260509225242 88 168 2.0 9.0 0.00 0.00 0.00 75 1012.5
20260509224738 87 181 2.0 5.0 0.00 0.00 0.00 76 1012.6
20260509224235 87 187 4.0 6.0 0.00 0.00 0.00 77 1012.4
20260509223732 87 163 2.0 6.0 0.00 0.00 0.00 77 1012.2
20260509223229 87 166 0.0 7.0 0.00 0.00 0.00 76 1012.5
20260509222726 87 169 2.0 7.0 0.00 0.00 0.00 77 1012.4
20260509222221 88 207 1.0 10.0 0.00 0.00 0.00 74 1012.3
20260509221717 89 190 2.0 5.0 0.00 0.00 0.00 73 1012.2
20260509221213 88 151 3.0 9.0 0.00 0.00 0.00 74 1012.1
20260509220709 87 157 2.0 5.0 0.00 0.00 0.00 76 1012.2
20260509220206 87 193 1.0 6.0 0.00 0.00 0.00 75 1012.4
20260509215701 88 147 3.0 6.0 0.00 0.00 0.00 72 1012.2
20260509215158 88 195 2.0 4.0 0.00 0.00 0.00 70 1012.0
20260509214655 89 148 5.0 7.0 0.00 0.00 0.00 70 1012.1
20260509214152 91 137 3.0 6.0 0.00 0.00 0.00 67 1012.3
20260509213649 93 205 2.0 5.0 0.00 0.00 0.00 66 1012.0
20260509213144 92 234 3.0 4.0 0.00 0.00 0.00 66 1011.9
20260509212643 91 171 3.0 6.0 0.00 0.00 0.00 65 1012.0
20260509212139 91 201 3.0 6.0 0.00 0.00 0.00 67 1012.2
20260509211635 93 155 2.0 4.0 0.00 0.00 0.00 64 1011.9
20260509211132 92 252 1.0 3.0 0.00 0.00 0.00 63 1012.3
20260509210629 92 224 2.0 6.0 0.00 0.00 0.00 63 1012.2
20260509210126 92 263 1.0 5.0 0.00 0.00 0.00 63 1012.0
20260509205620 93 250 2.0 4.0 0.00 0.00 0.00 60 1012.3
20260509205115 94 247 4.0 4.0 0.00 0.00 0.00 57 1012.3
20260509204612 94 239 2.0 3.0 0.00 0.00 0.00 57 1012.1
20260509204108 92 212 0.0 5.0 0.00 0.00 0.00 62 1012.4
20260509203604 93 243 3.0 4.0 0.00 0.00 0.00 62 1012.5
20260509203103 94 246 0.0 2.0 0.00 0.00 0.00 61 1012.4
20260509202603 93 175 0.0 6.0 0.00 0.00 0.00 64 1012.4
20260509202058 93 268 2.0 4.0 0.00 0.00 0.00 64 1012.4
20260509201553 94 173 2.0 4.0 0.00 0.00 0.00 63 1012.5
20260509201052 93 219 0.0 3.0 0.00 0.00 0.00 55 1012.7
20260509200550 93 314 1.0 5.0 0.00 0.00 0.00 57 1012.9
20260509200048 93 227 2.0 3.0 0.00 0.00 0.00 55 1012.9
20260509195543 92 218 0.0 1.0 0.00 0.00 0.00 57 1012.8
20260509195037 91 290 0.0 2.0 0.00 0.00 0.00 59 1012.9
20260509194532 92 266 2.0 4.0 0.00 0.00 0.00 58 1013.1
20260509194031 91 291 3.0 6.0 0.00 0.00 0.00 59 1013.0
20260509193530 91 320 2.0 5.0 0.00 0.00 0.00 57 1012.9
20260509193027 92 313 2.0 5.0 0.00 0.00 0.00 60 1012.9
20260509192524 92 292 2.0 3.0 0.00 0.00 0.00 61 1013.1
20260509192019 92 298 0.0 2.0 0.00 0.00 0.00 61 1013.0
20260509191514 91 212 1.0 3.0 0.00 0.00 0.00 63 1013.0
20260509191010 91 224 2.0 5.0 0.00 0.00 0.00 63 1013.1
20260509190507 92 248 0.0 2.0 0.00 0.00 0.00 64 1013.0
20260509190006 92 221 0.0 3.0 0.00 0.00 0.00 63 1013.2
20260509185502 91 286 2.0 3.0 0.00 0.00 0.00 62 1013.2
20260509184958 90 287 0.0 4.0 0.00 0.00 0.00 68 1013.3
20260509184457 89 263 0.0 2.0 0.00 0.00 0.00 69 1013.2
20260509183953 88 329 2.0 4.0 0.00 0.00 0.00 72 1013.4
20260509183453 88 328 2.0 9.0 0.00 0.00 0.00 71 1013.3
20260509182949 88 292 5.0 7.0 0.00 0.00 0.00 69 1013.8
20260509182445 88 218 0.0 3.0 0.00 0.00 0.00 76 1013.7
20260509181943 88 309 0.0 4.0 0.00 0.00 0.00 76 1014.0
20260509181441 87 94 0.0 3.0 0.00 0.00 0.00 76 1013.8
20260509180938 86 6 1.0 4.0 0.00 0.00 0.00 77 1014.0
20260509180434 86 118 3.0 6.0 0.00 0.00 0.00 77 1013.9
20260509175931 86 185 2.0 5.0 0.00 0.00 0.00 77 1014.4
20260509175428 85 237 0.0 4.0 0.00 0.00 0.00 79 1014.5
20260509174924 85 318 0.0 5.0 0.00 0.00 0.00 78 1014.6
20260509174420 85 350 2.0 3.0 0.00 0.00 0.00 84 1014.5
20260509173916 83 325 1.0 6.0 0.00 0.00 0.00 83 1014.7
20260509173415 83 221 3.0 3.0 0.00 0.00 0.00 82 1014.8
20260509172912 83 228 0.0 6.0 0.00 0.00 0.00 84 1014.7
20260509172409 83 326 2.0 7.0 0.00 0.00 0.00 85 1014.8
20260509171905 83 38 0.0 4.0 0.00 0.00 0.00 84 1014.8
20260509171401 83 33 1.0 7.0 0.00 0.00 0.00 84 1014.9
20260509170857 84 135 0.0 5.0 0.00 0.00 0.00 84 1015.0
20260509170353 84 319 0.0 4.0 0.00 0.00 0.00 84 1015.0
20260509165849 84 266 1.0 5.0 0.00 0.00 0.00 85 1014.9
20260509165343 83 246 2.0 6.0 0.00 0.00 0.00 85 1015.1
20260509164839 84 289 2.0 4.0 0.00 0.00 0.00 83 1015.0
20260509164335 84 245 0.0 3.0 0.00 0.00 0.00 85 1015.2
20260509163832 84 267 0.0 4.0 0.00 0.00 0.00 84 1014.9
20260509163328 84 232 0.0 5.0 0.00 0.00 0.00 83 1015.0
20260509162827 86 224 0.0 3.0 0.00 0.00 0.00 82 1014.7
20260509162320 85 306 2.0 4.0 0.00 0.00 0.00 82 1014.8
20260509161817 84 333 1.0 4.0 0.00 0.00 0.00 84 1014.9
20260509161313 83 235 0.0 3.0 0.00 0.00 0.00 85 1014.8
20260509160808 84 178 0.0 3.0 0.00 0.00 0.00 84 1014.8
20260509160305 84 269 0.0 2.0 0.00 0.00 0.00 84 1014.7
20260509155800 84 231 1.0 2.0 0.00 0.00 0.00 85 1015.0
20260509155257 83 86 1.0 3.0 0.00 0.00 0.00 88 1014.8
20260509154753 82 0 0.0 3.0 0.00 0.00 0.00 88 1014.9
20260509154250 81 294 0.0 2.0 0.00 0.00 0.00 90 1015.0
20260509153747 80 202 0.0 2.0 0.00 0.00 0.00 91 1014.5
20260509153243 80 143 2.0 7.0 0.00 0.00 0.00 92 1014.3
20260509152740 80 169 2.0 5.0 0.00 0.00 0.00 93 1014.3
20260509152236 79 151 1.0 3.0 0.00 0.00 0.00 94 1014.5
20260509151733 79 265 1.0 3.0 0.00 0.00 0.00 93 1014.4